When you browse on this site, cookies collect data to enhance your experience and personalize the content and advertising you see.
Visit our Privacy Policy to learn more. By continuing to use the site, you agree to this use of cookies and data.

Hourly Weather Tibissa

Today, 25 September, Friday

Time Temperature Precipitation Wind Pressure Humidity
00:00 +27°C° 0 mm 3 mps 687 mmHg 35%
01:00 +27°C° 0 mm 2 mps 686 mmHg 37%
02:00 +26°C° 0 mm 2 mps 686 mmHg 38%
03:00 +26°C° 0 mm 2 mps 686 mmHg 39%
04:00 +26°C° 0 mm 2 mps 686 mmHg 41%
05:00 +25°C° 0 mm 2 mps 686 mmHg 42%
06:00 +25°C° 0 mm 1 mps 686 mmHg 44%
07:00 +25°C° 0 mm 1 mps 685 mmHg 45%
08:00 +27°C° 0 mm 2 mps 686 mmHg 40%
09:00 +29°C° 0 mm 3 mps 686 mmHg 34%
10:00 +30°C° 0 mm 4 mps 686 mmHg 29%
11:00 +33°C° 0 mm 6 mps 686 mmHg 26%
12:00 +34°C° 0 mm 8 mps 686 mmHg 23%
13:00 +35°C° 0 mm 9 mps 686 mmHg 20%
14:00 +34°C° 0 mm 10 mps 686 mmHg 20%
15:00 +34°C° 0 mm 11 mps 685 mmHg 21%
16:00 +33°C° 0 mm 12 mps 685 mmHg 21%
17:00 +31°C° 0 mm 10 mps 685 mmHg 31%
18:00 +28°C° 0 mm 8 mps 684 mmHg 40%
19:00 +24°C° 0 mm 6 mps 684 mmHg 50%
20:00 +23°C° 0 mm 6 mps 684 mmHg 57%
21:00 +21°C° 0 mm 5 mps 684 mmHg 64%
22:00 +20°C° 0 mm 5 mps 684 mmHg 72%
23:00 +19°C° 0 mm 6 mps 684 mmHg 72%

Tomorrow, 26 September, Saturday

Time Temperature Precipitation Wind Pressure Humidity
00:00 +17°C° 0 mm 7 mps 684 mmHg 72%
01:00 +16°C° 0 mm 9 mps 684 mmHg 72%
02:00 +15°C° 0 mm 9 mps 683 mmHg 68%
03:00 +13°C° 0 mm 9 mps 683 mmHg 65%
04:00 +12°C° 0 mm 10 mps 683 mmHg 62%
05:00 +12°C° 0 mm 10 mps 683 mmHg 63%
06:00 +12°C° 0 mm 11 mps 683 mmHg 64%
07:00 +12°C° 0 mm 11 mps 683 mmHg 66%
08:00 +13°C° 0 mm 11 mps 683 mmHg 62%
09:00 +14°C° 0 mm 10 mps 684 mmHg 58%
10:00 +14°C° 0 mm 10 mps 684 mmHg 54%
11:00 +16°C° 0 mm 10 mps 684 mmHg 50%
12:00 +17°C° 0 mm 9 mps 684 mmHg 46%
13:00 +18°C° 0 mm 9 mps 684 mmHg 42%
14:00 +18°C° 0 mm 8 mps 684 mmHg 40%
15:00 +18°C° 0 mm 8 mps 684 mmHg 38%
16:00 +20°C° 0 mm 7 mps 683 mmHg 37%
17:00 +19°C° 0 mm 6 mps 683 mmHg 40%
18:00 +17°C° 0 mm 5 mps 683 mmHg 43%
19:00 +18°C° 0 mm 4 mps 683 mmHg 46%
20:00 +17°C° 0 mm 4 mps 683 mmHg 49%
21:00 +16°C° 0 mm 3 mps 683 mmHg 53%
22:00 +14°C° 0 mm 3 mps 683 mmHg 56%
23:00 +15°C° 0 mm 2 mps 683 mmHg 57%

Day after tomorrow, 27 September, Sunday

Time Temperature Precipitation Wind Pressure Humidity
00:00 +15°C° 0 mm 2 mps 683 mmHg 58%
01:00 +15°C° 0 mm 1 mps 682 mmHg 59%
02:00 +14°C° 0 mm 2 mps 682 mmHg 61%
03:00 +13°C° 0 mm 3 mps 681 mmHg 63%
04:00 +13°C° 0 mm 4 mps 681 mmHg 65%
05:00 +13°C° 0 mm 4 mps 681 mmHg 68%
06:00 +13°C° 0 mm 5 mps 681 mmHg 70%
07:00 +13°C° 0 mm 5 mps 681 mmHg 73%
08:00 +15°C° 0 mm 5 mps 681 mmHg 62%
09:00 +16°C° 0 mm 6 mps 681 mmHg 52%
10:00 +19°C° 0 mm 6 mps 682 mmHg 41%
11:00 +20°C° 0 mm 7 mps 682 mmHg 38%
12:00 +21°C° 0 mm 7 mps 682 mmHg 35%
13:00 +22°C° 0 mm 8 mps 682 mmHg 33%
14:00 +22°C° 0 mm 8 mps 682 mmHg 34%
15:00 +22°C° 0 mm 8 mps 682 mmHg 36%
16:00 +22°C° 0 mm 8 mps 682 mmHg 37%
17:00 +20°C° 0 mm 7 mps 682 mmHg 46%
18:00 +19°C° 0 mm 6 mps 683 mmHg 54%
19:00 +17°C° 0 mm 5 mps 683 mmHg 62%
20:00 +17°C° 0 mm 4 mps 683 mmHg 66%
21:00 +16°C° 0 mm 3 mps 683 mmHg 70%
22:00 +16°C° 0 mm 2 mps 684 mmHg 73%
23:00 +15°C° 0 mm 2 mps 684 mmHg 75%

28 September, Monday

Time Temperature Precipitation Wind Pressure Humidity
00:00 +15°C° 0 mm 1 mps 684 mmHg 77%
01:00 +15°C° 0 mm 1 mps 683 mmHg 78%
02:00 +15°C° 0 mm 1 mps 683 mmHg 77%
03:00 +15°C° 0 mm 1 mps 683 mmHg 75%
04:00 +15°C° 0 mm 1 mps 683 mmHg 74%
05:00 +15°C° 0 mm 1 mps 683 mmHg 73%
06:00 +15°C° 0 mm 2 mps 684 mmHg 72%
07:00 +15°C° 0 mm 2 mps 684 mmHg 72%
08:00 +16°C° 0 mm 3 mps 685 mmHg 62%
09:00 +18°C° 0 mm 4 mps 686 mmHg 53%
10:00 +19°C° 0 mm 5 mps 686 mmHg 44%
11:00 +20°C° 0 mm 5 mps 687 mmHg 39%
12:00 +21°C° 0 mm 5 mps 687 mmHg 33%
13:00 +22°C° 0 mm 5 mps 687 mmHg 28%
14:00 +23°C° 0 mm 5 mps 687 mmHg 27%
15:00 +23°C° 0 mm 5 mps 687 mmHg 25%
16:00 +23°C° 0 mm 5 mps 687 mmHg 24%
17:00 +22°C° 0 mm 5 mps 687 mmHg 29%
18:00 +21°C° 0 mm 4 mps 687 mmHg 34%
19:00 +20°C° 0 mm 4 mps 687 mmHg 40%
20:00 +19°C° 0 mm 3 mps 687 mmHg 48%
21:00 +18°C° 0 mm 2 mps 688 mmHg 57%
22:00 +18°C° 0 mm 1 mps 688 mmHg 65%
23:00 +18°C° 0 mm 1 mps 688 mmHg 66%

29 September, Tuesday

Time Temperature Precipitation Wind Pressure Humidity
00:00 +16°C° 0 mm 1 mps 688 mmHg 67%
01:00 +15°C° 0 mm 0 mps 688 mmHg 68%
02:00 +16°C° 0 mm 1 mps 688 mmHg 67%
03:00 +15°C° 0 mm 1 mps 687 mmHg 67%
04:00 +15°C° 0 mm 1 mps 687 mmHg 66%
05:00 +15°C° 0 mm 1 mps 687 mmHg 64%
06:00 +15°C° 0 mm 1 mps 688 mmHg 62%
07:00 +16°C° 0 mm 1 mps 688 mmHg 60%
08:00 +18°C° 0 mm 2 mps 688 mmHg 51%
09:00 +20°C° 0 mm 2 mps 689 mmHg 41%
10:00 +22°C° 0 mm 3 mps 689 mmHg 32%
11:00 +23°C° 0 mm 4 mps 689 mmHg 29%
12:00 +25°C° 0 mm 4 mps 689 mmHg 25%
13:00 +27°C° 0 mm 5 mps 689 mmHg 22%
14:00 +27°C° 0 mm 4 mps 689 mmHg 22%
15:00 +28°C° 0 mm 4 mps 689 mmHg 23%
16:00 +28°C° 0 mm 4 mps 688 mmHg 23%
17:00 +27°C° 0 mm 4 mps 688 mmHg 29%
18:00 +25°C° 0 mm 3 mps 688 mmHg 35%
19:00 +24°C° 0 mm 3 mps 688 mmHg 40%
20:00 +22°C° 0 mm 3 mps 688 mmHg 44%
21:00 +22°C° 0 mm 3 mps 688 mmHg 47%
22:00 +21°C° 0 mm 3 mps 688 mmHg 50%
23:00 +21°C° 0 mm 3 mps 687 mmHg 50%

30 September, Wednesday

Time Temperature Precipitation Wind Pressure Humidity
00:00 +20°C° 0 mm 2 mps 687 mmHg 49%
01:00 +20°C° 0 mm 2 mps 687 mmHg 49%
02:00 +20°C° 0 mm 3 mps 686 mmHg 49%
03:00 +20°C° 0 mm 3 mps 686 mmHg 48%
04:00 +20°C° 0 mm 3 mps 685 mmHg 48%
05:00 +20°C° 0 mm 3 mps 685 mmHg 48%
06:00 +20°C° 0 mm 3 mps 685 mmHg 49%
07:00 +19°C° 0 mm 3 mps 685 mmHg 49%
08:00 +22°C° 0 mm 4 mps 686 mmHg 42%
09:00 +25°C° 0 mm 4 mps 686 mmHg 36%
10:00 +28°C° 0 mm 4 mps 686 mmHg 29%
11:00 +29°C° 0 mm 5 mps 686 mmHg 27%
12:00 +30°C° 0 mm 5 mps 686 mmHg 24%
13:00 +33°C° 0 mm 6 mps 686 mmHg 22%
14:00 +33°C° 0 mm 6 mps 686 mmHg 22%
15:00 +33°C° 0 mm 5 mps 686 mmHg 22%
16:00 +33°C° 0 mm 5 mps 685 mmHg 22%
17:00 +30°C° 0 mm 4 mps 685 mmHg 27%
18:00 +28°C° 0 mm 3 mps 685 mmHg 31%
19:00 +26°C° 0 mm 2 mps 685 mmHg 36%
20:00 +26°C° 0 mm 2 mps 685 mmHg 39%
21:00 +25°C° 0 mm 1 mps 685 mmHg 42%
22:00 +24°C° 0 mm 1 mps 685 mmHg 46%
23:00 +24°C° 0 mm 1 mps 684 mmHg 47%
Show more